Middlebury State AP, Middlebu, VT

3:33 PM EST on November 11, 2019 (GMT -0500)
Middlebury State AP, Middlebu

Weather History for K6B0 - August, 2019

Change the Weather History Date:

Wednesday, August 14, 2019

  Actual Average (KRUT) Record (KRUT)
Temperature  
Mean Temperature 64 °F -  
Max Temperature 76 °F 80 °F 93 °F (2002)
Min Temperature 53 °F 57 °F 45 °F (1964)
Growing Degree Days 14 (Base 50)    
Moisture  
Dew Point 56 °F    
Average Humidity 77    
Maximum Humidity 98    
Minimum Humidity 45    
Precipitation  
Precipitation 0.00 in - - ()
Sea Level Pressure  
Sea Level Pressure 29.90 in    
Wind  
Wind Speed 2 mph ()    
Max Wind Speed 12 mph    
Max Gust Speed -    
Visibility 10.0 miles    
Events      
Averages and records for this station are not official NWS values.
T = Trace of Precipitation, MM = Missing Value Source: Averaged Metar Reports

Daily Weather History Graph

Daily Weather History Graph

Search for Another Location

Airport or City:

Astronomy

Aug. 14, 2019 Rise Set
Actual Time 5:54 AM EDT 7:58 PM EDT
Civil Twilight 5:23 AM EDT 8:29 PM EDT
Nautical Twilight 4:44 AM EDT 9:08 PM EDT
Astronomical Twilight 4:02 AM EDT 9:50 PM EDT
Moon 7:53 PM EDT (8/14) 4:46 AM EDT (8/14)
Length of Visible Light 15h 06m
Length of Day
14h 03m
Waxing Gibbous, 99% of the Moon is Illuminated
Aug 14
Waxing Gibbous
Aug 15
Full
Aug 23
Last Quarter
Aug 30
New
Sep 5
First Quarter

Hourly Weather History & Observations

Time (EDT) Temp. Dew Point Humidity Pressure Visibility Wind Dir Wind Speed Gust Speed Precip Events Conditions
12:16 AM 58.1 °F 54.7 °F 88% 29.84 in 10.0 mi Calm Calm - N/A   Scattered Clouds
12:35 AM 58.1 °F 55.0 °F 90% 29.84 in 10.0 mi Calm Calm - N/A   Clear
12:36 AM 58.1 °F 54.9 °F 89% 29.84 in 10.0 mi Calm Calm - N/A   Clear
12:55 AM 58.1 °F 54.5 °F 88% 29.85 in 10.0 mi Calm Calm - N/A   Clear
12:59 AM 58.1 °F 54.5 °F 88% 29.85 in 10.0 mi Calm Calm - N/A   Clear
1:17 AM 56.5 °F 54.5 °F 93% 29.84 in 10.0 mi Calm Calm - N/A   Clear
1:35 AM 57.2 °F 54.5 °F 91% 29.84 in 10.0 mi Calm Calm - N/A   Clear
1:55 AM 56.3 °F 54.1 °F 92% 29.83 in 10.0 mi Calm Calm - N/A   Clear
1:56 AM 56.3 °F 54.3 °F 93% 29.83 in 10.0 mi Calm Calm - N/A   Clear
2:15 AM 55.6 °F 53.6 °F 93% 29.83 in 10.0 mi Calm Calm - N/A   Clear
2:38 AM 56.7 °F 54.0 °F 91% 29.83 in 10.0 mi Calm Calm - N/A   Clear
2:56 AM 56.5 °F 53.6 °F 90% 29.83 in 10.0 mi Calm Calm - N/A   Clear
3:15 AM 55.2 °F 53.6 °F 94% 29.84 in 10.0 mi Calm Calm - N/A   Scattered Clouds
3:16 AM 55.2 °F 53.6 °F 94% 29.84 in 10.0 mi Calm Calm - N/A   Scattered Clouds
3:35 AM 55.8 °F 53.8 °F 93% 29.84 in 10.0 mi Calm Calm - N/A   Scattered Clouds
3:36 AM 55.9 °F 53.8 °F 92% 29.84 in 10.0 mi Calm Calm - N/A   Scattered Clouds
3:55 AM 55.2 °F 53.6 °F 94% 29.84 in 10.0 mi Calm Calm - N/A   Clear
3:59 AM 55.6 °F 54.0 °F 94% 29.84 in 10.0 mi Calm Calm - N/A   Clear
4:17 AM 54.9 °F 53.4 °F 95% 29.85 in 10.0 mi Calm Calm - N/A   Clear
4:35 AM 54.3 °F 53.2 °F 96% 29.85 in 10.0 mi Calm Calm - N/A   Clear
4:55 AM 54.5 °F 53.6 °F 97% 29.85 in 10.0 mi Calm Calm - N/A   Clear
4:56 AM 54.5 °F 53.4 °F 96% 29.85 in 10.0 mi Calm Calm - N/A   Clear
5:15 AM 54.0 °F 53.1 °F 97% 29.86 in 10.0 mi Calm Calm - N/A   Clear
5:39 AM 53.8 °F 52.9 °F 97% 29.87 in 10.0 mi Calm Calm - N/A   Clear
5:57 AM 53.2 °F 52.7 °F 98% 29.87 in 10.0 mi Calm Calm - N/A   Clear
6:15 AM 54.0 °F 53.2 °F 97% 29.87 in 10.0 mi Calm Calm - N/A   Clear
6:35 AM 55.2 °F 54.3 °F 97% 29.88 in 10.0 mi Calm Calm - N/A   Clear
6:36 AM 55.4 °F 54.3 °F 96% 29.88 in 10.0 mi Calm Calm - N/A   Clear
6:55 AM 55.9 °F 54.5 °F 95% 29.89 in 10.0 mi Calm Calm - N/A   Clear
6:59 AM 56.5 °F 54.5 °F 93% 29.89 in 10.0 mi Calm Calm - N/A   Clear
7:18 AM 58.3 °F 55.4 °F 90% 29.89 in 10.0 mi Calm Calm - N/A   Scattered Clouds
7:35 AM 58.3 °F 55.4 °F 90% 29.90 in 10.0 mi Calm Calm - N/A   Scattered Clouds
7:55 AM 58.3 °F 55.9 °F 92% 29.91 in 10.0 mi Calm Calm - N/A   Mostly Cloudy
7:56 AM 58.3 °F 56.1 °F 93% 29.91 in 10.0 mi Calm Calm - N/A   Mostly Cloudy
8:15 AM 59.9 °F 57.0 °F 90% 29.91 in 10.0 mi Calm Calm - N/A   Overcast
8:16 AM 59.9 °F 57.0 °F 90% 29.90 in 10.0 mi Calm Calm - N/A   Overcast
8:39 AM 59.9 °F 57.0 °F 90% 29.91 in 10.0 mi Calm Calm - N/A   Overcast
8:57 AM 60.8 °F 57.4 °F 88% 29.91 in 10.0 mi Calm Calm - N/A   Overcast
9:15 AM 61.7 °F 57.6 °F 86% 29.91 in 10.0 mi NNW 3.5 mph - N/A   Overcast
9:16 AM 61.7 °F 57.4 °F 86% 29.91 in 10.0 mi NNW 3.5 mph - N/A   Overcast
9:35 AM 63.3 °F 58.3 °F 84% 29.92 in 10.0 mi NNW 3.5 mph - N/A   Mostly Cloudy
9:36 AM 63.3 °F 58.3 °F 84% 29.92 in 10.0 mi North 3.5 mph - N/A   Mostly Cloudy
9:55 AM 64.9 °F 59.4 °F 82% 29.92 in 10.0 mi Calm Calm - N/A   Scattered Clouds
9:59 AM 65.3 °F 59.2 °F 81% 29.92 in 10.0 mi North 4.6 mph - N/A   Scattered Clouds
10:17 AM 66.7 °F 59.5 °F 78% 29.91 in 10.0 mi NNE 3.5 mph - N/A   Clear
10:36 AM 68.2 °F 60.3 °F 76% 29.91 in 10.0 mi NW 4.6 mph - N/A   Clear
10:55 AM 69.3 °F 60.8 °F 74% 29.91 in 10.0 mi North 4.6 mph - N/A   Clear
10:56 AM 69.4 °F 60.6 °F 73% 29.91 in 10.0 mi North 4.6 mph - N/A   Clear
11:15 AM 70.3 °F 60.3 °F 70% 29.91 in 10.0 mi NNW 6.9 mph - N/A   Clear
11:16 AM 70.3 °F 60.3 °F 70% 29.91 in 10.0 mi NNW 5.8 mph - N/A   Clear
11:35 AM 70.9 °F 60.4 °F 69% 29.90 in 10.0 mi NW 3.5 mph - N/A   Clear
11:39 AM 71.2 °F 60.3 °F 68% 29.91 in 10.0 mi NNW 5.8 mph - N/A   Clear
11:58 AM 71.8 °F 59.7 °F 66% 29.90 in 10.0 mi NNW 4.6 mph - N/A   Clear
12:16 PM 72.7 °F 60.3 °F 65% 29.90 in 10.0 mi North 5.8 mph - N/A   Clear
12:35 PM 73.4 °F 58.3 °F 59% 29.90 in 10.0 mi NNW 11.5 mph - N/A   Clear
12:36 PM 73.6 °F 58.5 °F 59% 29.90 in 10.0 mi NNW 9.2 mph - N/A   Clear
12:55 PM 74.3 °F 58.1 °F 57% 29.89 in 10.0 mi North 8.1 mph - N/A   Clear
12:56 PM 74.3 °F 57.7 °F 56% 29.89 in 10.0 mi North 9.2 mph - N/A   Clear
1:18 PM 74.5 °F 56.1 °F 53% 29.89 in 10.0 mi North 8.1 mph - N/A   Clear
1:36 PM 75.2 °F 56.5 °F 52% 29.89 in 10.0 mi NNW 6.9 mph - N/A   Clear
1:55 PM 75.2 °F 55.0 °F 49% 29.88 in 10.0 mi North 5.8 mph - N/A   Clear
1:56 PM 75.2 °F 54.7 °F 49% 29.88 in 10.0 mi North 5.8 mph - N/A   Clear
2:16 PM 75.7 °F 53.4 °F 46% 29.90 in 10.0 mi NNW 6.9 mph - N/A   Clear
2:38 PM 75.2 °F 54.0 °F 47% 29.89 in 10.0 mi North 8.1 mph - N/A   Clear
2:56 PM 75.7 °F 53.1 °F 45% 29.89 in 10.0 mi NNW 5.8 mph - N/A   Clear
3:15 PM 75.7 °F 54.9 °F 48% 29.90 in 10.0 mi North 5.8 mph - N/A   Clear
3:16 PM 75.6 °F 54.9 °F 48% 29.90 in 10.0 mi North 6.9 mph - N/A   Clear
3:35 PM 75.7 °F 55.0 °F 49% 29.90 in 10.0 mi North 6.9 mph - N/A   Clear
3:36 PM 75.7 °F 55.0 °F 49% 29.90 in 10.0 mi North 6.9 mph - N/A   Clear
3:59 PM 76.1 °F 55.6 °F 49% 29.91 in 10.0 mi NW 6.9 mph - N/A   Scattered Clouds
4:17 PM 75.4 °F 56.1 °F 51% 29.91 in 10.0 mi NNE 5.8 mph - N/A   Scattered Clouds
4:35 PM 75.4 °F 57.7 °F 54% 29.91 in 10.0 mi NNW 5.8 mph - N/A   Clear
4:55 PM 74.7 °F 54.9 °F 50% 29.91 in 10.0 mi NNW 6.9 mph - N/A   Clear
4:56 PM 74.7 °F 54.9 °F 50% 29.91 in 10.0 mi NNW 5.8 mph - N/A   Clear
5:15 PM 74.5 °F 56.1 °F 53% 29.91 in 10.0 mi NNW 8.1 mph - N/A   Clear
5:19 PM 74.5 °F 56.8 °F 54% 29.91 in 10.0 mi NNW 9.2 mph - N/A   Clear
5:37 PM 73.6 °F 56.8 °F 56% 29.91 in 10.0 mi NNW 8.1 mph - N/A   Clear
5:55 PM 73.4 °F 57.2 °F 57% 29.91 in 10.0 mi NNW 5.8 mph - N/A   Clear
6:15 PM 72.7 °F 57.6 °F 59% 29.92 in 10.0 mi North 8.1 mph - N/A   Clear
6:16 PM 72.7 °F 57.4 °F 59% 29.92 in 10.0 mi NNW 8.1 mph - N/A   Clear
6:35 PM 71.6 °F 56.5 °F 59% 29.92 in 10.0 mi North 6.9 mph - N/A   Clear
6:39 PM 71.6 °F 56.5 °F 59% 29.92 in 10.0 mi North 6.9 mph - N/A   Clear
6:57 PM 70.7 °F 56.7 °F 61% 29.93 in 10.0 mi NNW 5.8 mph - N/A   Clear
7:15 PM 69.4 °F 56.7 °F 64% 29.93 in 10.0 mi North 3.5 mph - N/A   Clear
7:35 PM 67.5 °F 57.9 °F 71% 29.94 in 10.0 mi Calm Calm - N/A   Clear
7:55 PM 65.3 °F 58.3 °F 78% 29.94 in 10.0 mi Calm Calm - N/A   Clear
8:19 PM 63.5 °F 58.1 °F 83% 29.95 in 10.0 mi Calm Calm - N/A   Clear
8:36 PM 63.0 °F 57.6 °F 82% 29.95 in 10.0 mi Calm Calm - N/A   Clear
8:56 PM 61.5 °F 57.0 °F 85% 29.96 in 10.0 mi Calm Calm - N/A   Clear
9:15 PM 60.8 °F 56.3 °F 85% 29.97 in 10.0 mi Calm Calm - N/A   Clear
9:16 PM 60.8 °F 56.3 °F 85% 29.97 in 10.0 mi Calm Calm - N/A   Clear
9:35 PM 59.9 °F 55.9 °F 87% 29.97 in 10.0 mi Calm Calm - N/A   Clear
9:39 PM 59.7 °F 56.1 °F 88% 29.97 in 10.0 mi Calm Calm - N/A   Clear
9:58 PM 59.9 °F 55.8 °F 86% 29.97 in 10.0 mi Calm Calm - N/A   Clear
10:15 PM 59.2 °F 55.4 °F 87% 29.97 in 10.0 mi Calm Calm - N/A   Clear
10:35 PM 58.3 °F 55.4 °F 90% 29.97 in 10.0 mi Calm Calm - N/A   Clear
10:36 PM 58.3 °F 55.4 °F 90% 29.97 in 10.0 mi Calm Calm - N/A   Clear
10:55 PM 58.1 °F 55.4 °F 91% 29.98 in 10.0 mi Calm Calm - N/A   Clear
10:59 PM 58.1 °F 55.2 °F 90% 29.98 in 10.0 mi Calm Calm - N/A   Clear
11:18 PM 57.7 °F 54.7 °F 90% 29.99 in 10.0 mi Calm Calm - N/A   Scattered Clouds
11:36 PM 57.6 °F 54.5 °F 90% 29.99 in 10.0 mi Calm Calm - N/A   Scattered Clouds
11:55 PM 57.4 °F 54.1 °F 89% 29.99 in 10.0 mi Calm Calm - N/A   Scattered Clouds
11:56 PM 57.4 °F 54.3 °F 90% 29.99 in 10.0 mi Calm Calm - N/A   Mostly Cloudy